Weather History for Branson, MO

Change the Weather History Date:

Wednesday, November 21, 2012

  Actual Average (KHRO) Record (KHRO)
Temperature  
Mean Temperature 54 °F 46 °F  
Max Temperature 68 °F 56 °F 81 °F (1908)
Min Temperature 41 °F 36 °F 11 °F (1937)
Degree Days  
Heating Degree Days 10 19  
Month to date heating degree days 311  
Since 1 July heating degree days 576  
Cooling Degree Days 0 0  
Month to date cooling degree days 0  
Year to date cooling degree days 1412  
Growing Degree Days 4 (Base 50)    
Moisture  
Dew Point 38 °F    
Average Humidity 66    
Maximum Humidity 93    
Minimum Humidity 26    
Precipitation  
Precipitation 0.00 in 0.14 in 1.64 in (1916)
Month to date precipitation 3.05  
Year to date precipitation 39.76  
Snow  
Snow 0.00 in 0.00 in 2.00 in (1972)
Month to date snowfall 0.0  
Since 1 July snowfall 0.1  
Since 1 September snowfall 0.1  
Snow Depth -    
Sea Level Pressure  
Sea Level Pressure 30.22 in    
Wind  
Wind Speed 2 mph (SSE)    
Max Wind Speed 8 mph    
Max Gust Speed -    
Visibility 9 miles    
Events      
T = Trace of Precipitation, MM = Missing Value Source: NWS Daily Summary

Daily Weather History Graph

Daily Weather History Graph

Search for Another Location

Airport:

Trip Planner

Search our weather history database for the weather conditions in past years. The results will help you decide how hot, cold, wet, or windy it might be!

Date:

Astronomy

Nov. 21, 2012 Rise Set
Actual Time 6:57 AM CST 5:00 PM CST
Civil Twilight 6:29 AM CST 5:28 PM CST
Nautical Twilight 5:57 AM CST 5:59 PM CST
Astronomical Twilight 5:26 AM CST 6:30 PM CST
Moon 1:08 PM CST (11/21) 12:26 AM CST (11/21)
Length of Visible Light 10h 59m
Length of Day
10h 03m
First Quarter, 62% of the Moon is Illuminated
Nov 21
First Quarter
Nov 28
Full
Dec 6
Last Quarter
Dec 13
New
Dec 19
First Quarter

Hourly Weather History & Observations

Time (CST) Temp. Dew Point Humidity Pressure Visibility Wind Dir Wind Speed Gust Speed Precip Events Conditions
12:15 AM 48.2 °F 41.0 °F 76% 30.23 in 10.0 mi Calm Calm - N/A   Clear
12:35 AM 46.4 °F 41.0 °F 81% 30.24 in 9.0 mi Calm Calm - N/A   Clear
12:55 AM 46.4 °F 41.0 °F 81% 30.24 in 10.0 mi Calm Calm - N/A   Clear
1:15 AM 44.6 °F 41.0 °F 87% 30.24 in 9.0 mi Calm Calm - N/A   Clear
1:35 AM 44.6 °F 41.0 °F 87% 30.25 in 9.0 mi Calm Calm - N/A   Clear
1:55 AM 44.6 °F 41.0 °F 87% 30.25 in 9.0 mi Calm Calm - N/A   Clear
2:15 AM 44.6 °F 41.0 °F 87% 30.26 in 8.0 mi Calm Calm - N/A   Clear
2:35 AM 42.8 °F 41.0 °F 93% 30.27 in 7.0 mi Calm Calm - N/A   Clear
2:55 AM 41.0 °F 39.2 °F 93% 30.26 in 8.0 mi Calm Calm - N/A   Clear
3:15 AM 42.8 °F 39.2 °F 87% 30.26 in 8.0 mi Calm Calm - N/A   Clear
3:35 AM 41.0 °F 39.2 °F 93% 30.26 in 7.0 mi Calm Calm - N/A   Clear
3:55 AM 42.8 °F 39.2 °F 87% 30.25 in 7.0 mi Calm Calm - N/A   Clear
4:15 AM 41.0 °F 39.2 °F 93% 30.26 in 6.0 mi Calm Calm - N/A   Clear
4:35 AM 41.0 °F 39.2 °F 93% 30.26 in 5.0 mi Calm Calm - N/A   Clear
4:55 AM 42.8 °F 41.0 °F 93% 30.26 in 5.0 mi Calm Calm - N/A   Clear
5:15 AM 41.0 °F 39.2 °F 93% 30.26 in 4.0 mi Calm Calm - N/A   Clear
5:35 AM 41.0 °F 39.2 °F 93% 30.26 in 4.0 mi Calm Calm - N/A   Clear
6:45 AM 42.8 °F 41.0 °F 93% 30.27 in 7.0 mi Calm Calm - N/A   Partly Cloudy
7:50 AM 44.6 °F 42.8 °F 93% 30.28 in 10.0 mi Calm Calm - N/A   Clear
8:50 AM 51.8 °F 46.4 °F 82% 30.29 in 10.0 mi SE 5.8 mph - N/A   Clear
9:50 AM 55.4 °F 44.6 °F 67% 30.30 in 10.0 mi SE 5.8 mph - N/A   Clear
10:48 AM 59.0 °F 42.8 °F 55% 30.29 in 10.0 mi Calm Calm - N/A   Clear
11:56 AM 64.4 °F 33.8 °F 32% 30.26 in 10.0 mi Calm Calm - N/A   Clear
12:57 PM 66.2 °F 32.0 °F 28% 30.23 in 10.0 mi Calm Calm - N/A   Clear
1:55 PM 66.2 °F 32.0 °F 28% 30.21 in 10.0 mi Calm Calm - N/A   Clear
2:50 PM 68.0 °F 32.0 °F 26% 30.19 in 10.0 mi SE 8.1 mph - N/A   Clear
3:47 PM 66.2 °F 32.0 °F 28% 30.18 in 10.0 mi SSE 6.9 mph - N/A   Clear
4:49 PM 59.0 °F 37.4 °F 45% 30.17 in 10.0 mi ESE 8.1 mph - N/A   Clear
5:45 PM 57.2 °F 41.0 °F 55% 30.18 in 10.0 mi ESE 5.8 mph - N/A   Clear
6:45 PM 53.6 °F 39.2 °F 58% 30.17 in 10.0 mi SE 6.9 mph - N/A   Clear
7:45 PM 55.4 °F 37.4 °F 51% 30.17 in 10.0 mi SE 8.1 mph - N/A   Clear
8:15 PM 53.6 °F 37.4 °F 54% 30.17 in 10.0 mi SSE 5.8 mph - N/A   Clear
8:35 PM 53.6 °F 37.4 °F 54% 30.17 in 10.0 mi SSE 5.8 mph - N/A   Clear
8:45 PM 53.6 °F 35.6 °F 51% 30.17 in 10.0 mi South 5.8 mph - N/A   Clear
8:55 PM 55.4 °F 35.6 °F 47% 30.17 in 10.0 mi South 5.8 mph - N/A   Clear
9:15 PM 53.6 °F 35.6 °F 51% 30.17 in 10.0 mi South 5.8 mph - N/A   Clear
9:35 PM 53.6 °F 35.6 °F 51% 30.16 in 10.0 mi South 5.8 mph - N/A   Clear
9:55 PM 53.6 °F 35.6 °F 51% 30.16 in 10.0 mi South 5.8 mph - N/A   Clear
10:15 PM 53.6 °F 35.6 °F 51% 30.16 in 10.0 mi SSE 5.8 mph - N/A   Clear
10:35 PM 51.8 °F 35.6 °F 54% 30.16 in 10.0 mi South 5.8 mph - N/A   Clear
10:55 PM 51.8 °F 33.8 °F 50% 30.15 in 10.0 mi South 6.9 mph - N/A   Clear
11:15 PM 51.8 °F 32.0 °F 47% 30.15 in 10.0 mi South 5.8 mph - N/A   Clear
11:35 PM 48.2 °F 33.8 °F 58% 30.15 in 10.0 mi SSE 5.8 mph - N/A   Clear
11:55 PM 50.0 °F 33.8 °F 54% 30.15 in 10.0 mi South 6.9 mph - N/A   Clear